Location: Abbey Hill
(34.0751°N, 84.0688°W)
Time: 07:09:08
(UTC+00:00)

Envisat - Pass Details

Date: 06 October 2021
Orbit: 764 x 766 km, 98.2° (Epoch: 23 October)

Event Time Altitude Azimuth Distance (km) Brightness Sun altitude
Rises 10:31:03 0° 15° (NNE) 3,234 6.5 -14.0°
Reaches altitude 10° 10:33:23 10° 17° (NNE) 2,304 5.7 -13.5°
Maximum altitude 10:38:27 71° 101° (ESE) 807 3.3 -12.5°
Drops below altitude 10° 10:43:29 10° 186° (S) 2,290 5.4 -11.4°
Sets 10:45:47 0° 188° (S) 3,212 6.1 -10.9°
